Regional Weather Roundup
Issued by NWS

Home | Current Version | Previous Version | Text Only | Print | Product List | Glossary On
Versions: 1 2 3 4 5 6 7 8 9 10 11 12 13 14 15 16 17 18 19 20 21 22 23 24 25 26 27 28
000
ASUS42 KTBW 230516
RWRFL
FLORIDA REGIONAL WEATHER ROUNDUP
NATIONAL WEATHER SERVICE TAMPA BAY RUSKIN FL
1200 AM EST MON JAN 23 2017

NOTE: "FAIR" INDICATES FEW OR NO CLOUDS BELOW 12,000 FEET WITH NO
SIGNIFICANT WEATHER AND/OR OBSTRUCTIONS TO VISIBILITY.

FLZ001>010-012>015-112-114-115-230600-
PANHANDLE FLORIDA

CITY           SKY/WX    TMP DP  RH WIND       PRES   REMARKS
PENSACOLA      PTCLDY    59  42  53 W12G20    29.48R
PENSACOLA NAS  PTCLDY    61  42  49 W13G25    29.48S
MILTON NAS     LGT RAIN  55  41  59 W10       29.47
CRESTVIEW      CLEAR     56  40  55 W9        29.47R
DUKE FIELD     FAIR      57  40  51 W12G20    29.45R
VALPARAISO     CLEAR     58  41  52 W14       29.47R
MARY ESTHER    PTCLDY    60  27  29 W13G21    29.47R
PANAMA CITY    FAIR      60  41  49 W14G23    29.46R
TYNDALL AFB    PTCLDY    62  45  53 W23G33    29.48R
APALACHICOLA   MOCLDY    65  50  58 W15G26    29.48R

STATION/POSITION SKY/WX   TEMP    WIND        PRES    WAVE   SWELL
                          AIR SEA DIR/SP/G            HT/PER HT/PER
                          (F)     (DEG/KT/KT) (MB)    (FT/S) (FT/S)
30.1N   87.6W              63 65  270/ 27/ 35  998.2F  10/ 8
28.8N   86.0W              66 75               998.8F  20/ 9
PANAMA CITY BEAC           63 66  270/ 30/ 35  998.1F
TOWER C                    66     290/ 38/ 40  998.3F
28.5N   84.5W              71 73  280/ 31/ 39  998.1F  13/ 8   2/15

$$
FLZ011-016>038-118-127-128-134-139-239-230600-
NORTH FLORIDA

CITY           SKY/WX    TMP DP  RH WIND       PRES   REMARKS
MARIANNA       CLEAR     57  46  66 W12       29.43R
TALLAHASSEE    CLEAR     55  52  89 SW8       29.44F
PERRY          LGT RAIN  60  55  83 W7        29.47F
CROSS CITY     CLOUDY    59  57  94 W9G20     29.48S
LAKE CITY      CLOUDY    55  54  94 SW3       29.47S
GAINESVILLE    CLOUDY    74  53  48 W10       29.48R
WILLISTON      CLEAR     63  57  82 S7        29.49F
PALATKA        CLOUDY    61  55  82 SW5       29.48R
MAYPORT NAS    PTCLDY    64  46  52 W12G18    29.44F
JACKSONVILLE   MOCLDY    61  49  64 W15G23    29.43F
JAX NAS        MOCLDY    63  48  58 W17G24    29.46S
FERNANDINA BEA FAIR      63  50  63 W14G20    29.42F
ST AUGUSTINE   CLEAR     62  52  69 SW5       29.46F

STATION/POSITION SKY/WX   TEMP    WIND        PRES    WAVE   SWELL
                          AIR SEA DIR/SP/G            HT/PER HT/PER
                          (F)     (DEG/KT/KT) (MB)    (FT/S) (FT/S)
SHELL POINT      NOT AVBL
KEATON BEACH               64     270/ 17/ 20  997.3F
CEDAR KEY                  65     250/ 13/ 17  999.0R
FERNANDINA                 62 67  250/  9/ 12  997.3F
30.7N   81.3W                 63                N/A     4/ 7   2/14
MAYPORT                    64 66  270/ 14/ 18  996.9F
31.4N   80.9W              62 60  250/ 17/ 21  994.6F   4/ 6   2/ 7
ST AUGUSTINE               62 65  210/  6/  8  998.2F

$$
FLZ040-043>046-052-053-057-058-063-144-230600-
INTERIOR CENTRAL FLORIDA

CITY           SKY/WX    TMP DP  RH WIND       PRES   REMARKS
OCALA          CLOUDY    63  54  72 W8        29.50R
THE VILLAGES     N/A     63  63 100 CALM      29.40S
LEESBURG       CLOUDY    63  60  90 SW7       29.50S
SANFORD        CLOUDY    65  62  90 S6        29.50F
ORLANDO EXEC   CLOUDY    66  62  87 SW6       29.51S
ORLANDO INTL   CLOUDY    67  60  78 SW7       29.52S
KISSIMMEE      CLOUDY    66  64  93 SW7       29.53F
WINTER HAVEN   CLOUDY    66  64  93 SW5       29.54S
LAKELAND       CLOUDY    64  64 100 W7        29.54S FOG
BARTOW         CLOUDY    66  66 100 SW7       29.54S
OKEECHOBEE     LGT RAIN  73  70  88 SW18G25   29.52F

$$
FLZ041-047-054-059-064-141-147-230600-
EAST CENTRAL FLORIDA

CITY           SKY/WX    TMP DP  RH WIND       PRES   REMARKS
DAYTONA BEACH  MOCLDY    63  62  97 SW3       29.49S
DELAND         CLOUDY    63  63 100 S6        29.49R
JFK SPACE CTR  CLOUDY    66  63  90 W5        29.51F
CAPE CANAVERAL CLOUDY    66  63  89 W3        29.51R
PATRICK AFB    CLOUDY    66  64  94 W7        29.50F
MELBOURNE      LGT RAIN  64  64 100 W10       29.50F
VERO BEACH     LGT RAIN  76  70  82 SW18G37   29.51F
FT PIERCE      CLOUDY    78  69  73 SW21G31   29.49F
STUART         CLOUDY    79  70  73 S21G31    29.55F

STATION/POSITION SKY/WX   TEMP    WIND        PRES    WAVE   SWELL
                          AIR SEA DIR/SP/G            HT/PER HT/PER
                          (F)     (DEG/KT/KT) (MB)    (FT/S) (FT/S)
TRIDENT PIER     NOT AVBL
28.4N   80.5W                 72                N/A     4/ 6   2/14
27.5N   80.2W                 75                N/A     5/ 5   2/14

$$
FLZ050-056-061-142-242-148-248-149-249-151-251-155-255-
160-260-230600-
WEST CENTRAL FLORIDA

CITY           SKY/WX    TMP DP  RH WIND       PRES   REMARKS
INVERNESS      CLOUDY    59  59 100 CALM      29.51R
BROOKSVILLE    PTCLDY    64  60  87 SW10G18   29.52S
CLEARWATER AIR FAIR      70  59  68 W15G28    29.53S
ST PETE CLEARW MOCLDY    69  58  67 W16G23    29.53F
TAMPA INTL     PTCLDY    70  61  73 W16G25    29.53F
TAMPA EXEC     CLOUDY    70  61  73 W6        29.54S
PLANT CITY     CLOUDY    68  66  94 W10       29.55S FOG
MACDILL AFB    CLEAR     69  63  80 N13G21    29.53F
PETER O KNIGHT CLOUDY    72  63  73 W8G16     29.54S
ST PETERSBURG  MOCLDY    71  57  61 W16G26    29.52F
SARASOTA       CLOUDY    71  62  73 W18G30    29.54F
VENICE         CLOUDY    73  63  68 W18G25    29.57F

STATION/POSITION SKY/WX   TEMP    WIND        PRES    WAVE   SWELL
                          AIR SEA DIR/SP/G            HT/PER HT/PER
                          (F)     (DEG/KT/KT) (MB)    (FT/S) (FT/S)
27.3N   84.2W                 77                N/A    12/ 9   2/11
CLEARWATER BEACH           71 70  250/ 20/ 25  999.9F
MIDDLE TAMPA BAY           71     280/ 20/ 23 1000.6F
VENICE                     72 72  260/ 18/ 20 1000.9F

$$
FLZ066-069-070-075>078-162-262-165-265-230600-
SOUTHWEST FLORIDA AND KEYS

CITY           SKY/WX    TMP DP  RH WIND       PRES   REMARKS
PUNTA GORDA    CLOUDY    73  64  73 W18G28    29.57S
FT MYERS       CLOUDY    74  70  87 W24G32    29.56R
SOUTHWEST INTL CLOUDY    72  68  87 SW17      29.56F
NAPLES         TSTM      74  73  97 SW29G43   29.58S FOG
MARCO ISLAND   MOCLDY    75  70  83 S17G29    29.58F
MARATHON       CLEAR     81  73  76 SW15G29   29.67F
KEY WEST NAS   CLEAR     78  72  81 SW28G36   29.67F
KEY WEST INTL  NOT AVBL

STATION/POSITION SKY/WX   TEMP    WIND        PRES    WAVE   SWELL
                          AIR SEA DIR/SP/G            HT/PER HT/PER
                          (F)     (DEG/KT/KT) (MB)    (FT/S) (FT/S)
NAPLES                        74              1001.3F
26.0N   85.6W              74 75  260/ 29/ 35 1003.7F  10/ 8
DRY TORTUGAS               79     220/ 25/ 28 1003.6F
SAND KEY                   78     210/ 28/ 32 1005.2F
LONG KEY                   78 76  210/ 23/ 25 1006.0F

$$
FLZ067-068-071>074-168-172>174-230600-
SOUTHEAST FLORIDA

CITY           SKY/WX    TMP DP  RH WIND       PRES   REMARKS
W PALM BEACH   PTCLDY    78  68  71 S26G43    29.57F
FT LAUDER-EXEC PTCLDY    79  67  66 S25G33    29.60F
FT LAUDERDALE  MOCLDY    78  69  73 SW23G33   29.60F
POMPANO BEACH  PTCLDY    79  69  71 S23G35    29.60F
PEMBROKE PINES MOCLDY    78  69  73 S22G32    29.62F
OPA LOCKA      PTCLDY    79  69  71 S24G32    29.63F
MIAMI          PTCLDY    80  70  71 S23G32    29.63F
WEST KENDALL   MOCLDY    78  70  76 S16G29    29.63F
HOMESTEAD      PTCLDY    77  75  93 S18G29    29.64F

STATION/POSITION SKY/WX   TEMP    WIND        PRES    WAVE   SWELL
                          AIR SEA DIR/SP/G            HT/PER HT/PER
                          (F)     (DEG/KT/KT) (MB)    (FT/S) (FT/S)
PORT EVERGLADES            79     190/ 14/ 23 1003.3F
VIRGINIA KEY               77 81  210/ 22/ 28 1004.4F
LAKE WORTH                 78 76  200/ 24/ 31 1001.5F
FOWEY ROCKS                77 75  200/ 30/ 33 1005.5F

$$





USA.gov is the U.S. government's official web portal to all federal, state and local government web resources and services.